| time (UTC) | temp F | wind direction | speed knots | gust knots | rain 1hr in | rain 24hr in | rain mn in | humidity % | barometer mb |
| 20260902191933 | 89 | 58 | 3.5 | 9.6 | 0.00 | 0.00 | 0.00 | 75 | 1013.6 |
| 20260902190929 | 89 | 76 | 4.3 | 10.4 | 0.00 | 0.01 | 0.00 | 71 | 1013.8 |
| 20260902190424 | 93 | 46 | 2.6 | 5.2 | 0.00 | 0.01 | 0.00 | 67 | 1013.8 |
| 20260902184930 | 91 | 29 | 1.7 | 4.3 | 0.00 | 0.01 | 0.00 | 70 | 1013.9 |
| 20260902183926 | 92 | 90 | 2.6 | 4.3 | 0.00 | 0.01 | 0.00 | 66 | 1014.0 |
| 20260902182926 | 94 | 344 | 3.5 | 8.7 | 0.00 | 0.01 | 0.00 | 64 | 1014.1 |
| 20260902181928 | 93 | 323 | 2.6 | 8.7 | 0.00 | 0.01 | 0.00 | 66 | 1014.1 |
| 20260902180925 | 93 | 283 | 2.6 | 7.0 | 0.00 | 0.01 | 0.00 | 66 | 1014.4 |
| 20260902175924 | 92 | 300 | 1.7 | 7.0 | 0.00 | 0.01 | 0.00 | 65 | 1014.5 |
| 20260902175422 | 92 | 325 | 4.3 | 8.7 | 0.00 | 0.01 | 0.00 | 69 | 1014.7 |
| 20260902173924 | 93 | 350 | 2.6 | 8.7 | 0.00 | 0.01 | 0.00 | 68 | 1014.7 |
| 20260902173406 | 92 | 106 | 2.6 | 6.1 | 0.00 | 0.01 | 0.00 | 67 | 1014.8 |
| 20260902171921 | 91 | 10 | 1.7 | 4.3 | 0.00 | 0.01 | 0.00 | 72 | 1014.9 |
| 20260902170924 | 90 | 10 | 2.6 | 7.0 | 0.00 | 0.01 | 0.00 | 71 | 1015.0 |
| 20260902165922 | 91 | 344 | 1.7 | 4.3 | 0.00 | 0.01 | 0.00 | 71 | 1015.1 |
| 20260902164920 | 89 | 25 | 2.6 | 7.8 | 0.00 | 0.01 | 0.00 | 73 | 1015.4 |
| 20260902163920 | 91 | 15 | 1.7 | 7.0 | 0.00 | 0.01 | 0.00 | 72 | 1015.4 |
| 20260902162920 | 89 | 29 | 0.9 | 3.5 | 0.00 | 0.01 | 0.00 | 73 | 1015.6 |
| 20260902161918 | 87 | 339 | 3.5 | 7.8 | 0.00 | 0.01 | 0.00 | 79 | 1015.7 |
| 20260902160919 | 89 | 333 | 3.5 | 7.0 | 0.00 | 0.01 | 0.00 | 75 | 1015.8 |
| 20260902160404 | 88 | 325 | 4.3 | 8.7 | 0.00 | 0.01 | 0.00 | 77 | 1015.9 |
| 20260902155355 | 89 | 306 | 2.6 | 7.0 | 0.00 | 0.01 | 0.00 | 77 | 1016.0 |
| 20260902153919 | 88 | 21 | 2.6 | 7.8 | 0.00 | 0.01 | 0.00 | 78 | 1016.0 |
| 20260902152919 | 88 | 324 | 2.6 | 7.8 | 0.00 | 0.01 | 0.00 | 78 | 1016.2 |
| 20260902152349 | 86 | 1 | 2.6 | 6.1 | 0.00 | 0.01 | 0.00 | 82 | 1016.2 |
| 20260902150914 | 87 | 356 | 3.5 | 7.0 | 0.00 | 0.04 | 0.00 | 82 | 1016.3 |
| 20260902150410 | 86 | 5 | 3.5 | 8.7 | 0.00 | 0.13 | 0.00 | 82 | 1016.2 |
| 20260902144912 | 86 | 26 | 2.6 | 7.0 | 0.00 | 0.14 | 0.00 | 82 | 1016.1 |
| 20260902143911 | 85 | 24 | 1.7 | 6.1 | 0.00 | 0.15 | 0.00 | 84 | 1016.2 |
| 20260902142914 | 86 | 94 | 2.6 | 7.0 | 0.00 | 0.15 | 0.00 | 81 | 1016.2 |
| 20260902141910 | 85 | 354 | 0.9 | 2.6 | 0.00 | 0.15 | 0.00 | 85 | 1016.1 |
| 20260902140909 | 84 | 15 | 1.7 | 5.2 | 0.00 | 0.15 | 0.00 | 86 | 1016.1 |
| 20260902135908 | 83 | 10 | 0.9 | 2.6 | 0.00 | 0.15 | 0.00 | 89 | 1016.2 |
| 20260902135347 | 83 | 10 | 1.7 | 3.5 | 0.00 | 0.15 | 0.00 | 88 | 1016.1 |
| 20260902133904 | 83 | 10 | 1.7 | 4.3 | 0.00 | 0.15 | 0.00 | 89 | 1016.1 |
| 20260902132904 | 82 | 22 | 2.6 | 4.3 | 0.00 | 0.15 | 0.00 | 90 | 1016.2 |
| 20260902131902 | 82 | 23 | 2.6 | 7.0 | 0.00 | 0.15 | 0.00 | 91 | 1016.3 |
| 20260902130902 | 82 | 20 | 2.6 | 7.0 | 0.00 | 0.15 | 0.00 | 91 | 1016.2 |
| 20260902125901 | 81 | 20 | 3.5 | 7.8 | 0.00 | 0.15 | 0.00 | 92 | 1016.0 |
| 20260902124903 | 81 | 343 | 2.6 | 5.2 | 0.00 | 0.15 | 0.00 | 93 | 1016.1 |
| 20260902124828 | 80 | 340 | 2.6 | 5.2 | 0.00 | 0.15 | 0.00 | 94 | 1016.1 |
| 20260902122859 | 80 | 348 | 0.9 | 5.2 | 0.00 | 0.15 | 0.00 | 94 | 1016.1 |
| 20260902121858 | 79 | 341 | 0.9 | 3.5 | 0.00 | 0.15 | 0.00 | 95 | 1016.1 |
| 20260902120859 | 79 | 340 | 0.0 | 1.7 | 0.00 | 0.15 | 0.00 | 95 | 1016.1 |
| 20260902115859 | 78 | 340 | 0.0 | 1.7 | 0.00 | 0.15 | 0.00 | 95 | 1016.0 |
| 20260902114858 | 78 | 340 | 0.0 | 1.7 | 0.00 | 0.15 | 0.00 | 95 | 1015.8 |
| 20260902114334 | 77 | 340 | 0.0 | 2.6 | 0.00 | 0.15 | 0.00 | 95 | 1015.8 |
| 20260902112857 | 77 | 340 | 0.0 | 1.7 | 0.00 | 0.15 | 0.00 | 95 | 1015.7 |
| 20260902111858 | 77 | 340 | 0.0 | 1.7 | 0.00 | 0.15 | 0.00 | 94 | 1015.6 |
| 20260902110900 | 77 | 340 | 0.9 | 3.5 | 0.00 | 0.15 | 0.00 | 94 | 1015.5 |
| 20260902105844 | 77 | 340 | 1.7 | 3.5 | 0.00 | 0.15 | 0.00 | 95 | 1015.2 |
| 20260902104844 | 77 | 347 | 1.7 | 3.5 | 0.00 | 0.15 | 0.00 | 94 | 1015.2 |
| 20260902103845 | 77 | 352 | 1.7 | 4.3 | 0.00 | 0.15 | 0.00 | 95 | 1015.1 |
| 20260902103324 | 77 | 48 | 0.9 | 2.6 | 0.00 | 0.15 | 0.00 | 94 | 1015.0 |
| 20260902101845 | 77 | 100 | 0.9 | 2.6 | 0.00 | 0.15 | 0.00 | 95 | 1015.0 |
| 20260902101332 | 76 | 100 | 0.0 | 1.7 | 0.00 | 0.15 | 0.00 | 94 | 1015.0 |
| 20260902095841 | 77 | 100 | 0.9 | 2.6 | 0.00 | 0.15 | 0.00 | 94 | 1015.0 |
| 20260902094842 | 76 | 100 | 0.0 | 0.9 | 0.00 | 0.15 | 0.00 | 94 | 1015.0 |
| 20260902093841 | 76 | 100 | 0.0 | 0.9 | 0.00 | 0.15 | 0.00 | 94 | 1015.0 |
| 20260902092838 | 76 | 100 | 0.0 | 1.7 | 0.00 | 0.15 | 0.00 | 94 | 1014.9 |
| 20260902091840 | 76 | 100 | 0.9 | 1.7 | 0.00 | 0.15 | 0.00 | 94 | 1014.9 |
| 20260902090840 | 76 | 100 | 0.0 | 0.9 | 0.00 | 0.15 | 0.00 | 94 | 1014.8 |
| 20260902085838 | 76 | 100 | 0.0 | 0.0 | 0.00 | 0.15 | 0.00 | 94 | 1014.7 |
| 20260902084840 | 76 | 100 | 0.0 | 0.0 | 0.00 | 0.15 | 0.00 | 94 | 1014.7 |
| 20260902084320 | 76 | 100 | 0.0 | 0.0 | 0.00 | 0.15 | 0.00 | 94 | 1014.7 |
| 20260902082839 | 76 | 100 | 0.0 | 0.0 | 0.00 | 0.15 | 0.00 | 94 | 1014.7 |
| 20260902081840 | 76 | 100 | 0.0 | 0.9 | 0.00 | 0.15 | 0.00 | 94 | 1014.7 |
| 20260902080835 | 77 | 100 | 0.0 | 1.7 | 0.00 | 0.15 | 0.00 | 94 | 1014.7 |
| 20260902075836 | 76 | 100 | 0.0 | 1.7 | 0.00 | 0.15 | 0.00 | 94 | 1014.7 |
| 20260902074835 | 76 | 100 | 1.7 | 3.5 | 0.00 | 0.15 | 0.00 | 94 | 1014.7 |
| 20260902073826 | 76 | 100 | 0.9 | 1.7 | 0.00 | 0.15 | 0.00 | 94 | 1014.7 |
| 20260902072824 | 76 | 100 | 0.0 | 0.9 | 0.00 | 0.15 | 0.00 | 94 | 1014.8 |
| 20260902071823 | 77 | 100 | 0.0 | 0.9 | 0.00 | 0.15 | 0.00 | 94 | 1014.9 |
| 20260902070822 | 77 | 100 | 0.0 | 0.9 | 0.00 | 0.15 | 0.00 | 94 | 1014.8 |
| 20260902065810 | 77 | 100 | 0.0 | 0.0 | 0.00 | 0.15 | 0.00 | 94 | 1014.9 |
| 20260902064810 | 76 | 100 | 0.0 | 0.0 | 0.00 | 0.15 | 0.00 | 94 | 1014.9 |
| 20260902063809 | 76 | 100 | 0.0 | 0.9 | 0.00 | 0.15 | 0.00 | 94 | 1015.0 |
| 20260902062810 | 76 | 100 | 0.0 | 0.0 | 0.00 | 0.15 | 0.00 | 93 | 1015.2 |
| 20260902061755 | 77 | 100 | 0.0 | 0.0 | 0.00 | 0.15 | 0.00 | 94 | 1015.4 |
| 20260902060757 | 77 | 100 | 0.0 | 0.0 | 0.00 | 0.15 | 0.00 | 93 | 1015.3 |
| 20260902055756 | 77 | 100 | 0.0 | 0.0 | 0.00 | 0.15 | 0.00 | 93 | 1015.4 |
| 20260902054755 | 77 | 100 | 0.0 | 0.0 | 0.00 | 0.15 | 0.00 | 93 | 1015.6 |
| 20260902053752 | 77 | 100 | 0.0 | 0.0 | 0.00 | 0.15 | 0.00 | 93 | 1015.5 |
| 20260902052753 | 77 | 100 | 0.0 | 0.0 | 0.00 | 0.15 | 0.00 | 93 | 1015.5 |
| 20260902051753 | 77 | 100 | 0.0 | 0.0 | 0.00 | 0.15 | 0.00 | 93 | 1015.5 |
| 20260902050754 | 77 | 100 | 0.0 | 0.0 | 0.00 | 0.15 | 0.00 | 93 | 1015.5 |
| 20260902045753 | 78 | 100 | 0.0 | 0.0 | 0.00 | 0.15 | 0.00 | 93 | 1015.5 |
| 20260902044747 | 78 | 100 | 0.0 | 0.0 | 0.00 | 0.15 | 0.00 | 92 | 1015.6 |
| 20260902043746 | 78 | 100 | 0.0 | 0.0 | 0.00 | 0.15 | 0.00 | 92 | 1015.7 |
| 20260902042747 | 78 | 100 | 0.0 | 0.0 | 0.00 | 0.15 | 0.00 | 92 | 1015.7 |
| 20260902041746 | 78 | 100 | 0.0 | 0.0 | 0.00 | 0.15 | 0.00 | 92 | 1015.7 |
| 20260902040747 | 78 | 100 | 0.0 | 0.9 | 0.00 | 0.15 | 0.00 | 91 | 1015.8 |
| 20260902040224 | 78 | 100 | 0.9 | 1.7 | 0.00 | 0.15 | 0.15 | 91 | 1015.8 |
| 20260902034744 | 79 | 100 | 0.9 | 1.7 | 0.00 | 0.15 | 0.15 | 91 | 1015.9 |
| 20260902033745 | 79 | 100 | 0.0 | 1.7 | 0.00 | 0.15 | 0.15 | 91 | 1016.0 |
| 20260902032746 | 79 | 100 | 0.0 | 0.0 | 0.00 | 0.15 | 0.15 | 91 | 1016.0 |
| 20260902031744 | 79 | 100 | 0.0 | 0.0 | 0.00 | 0.15 | 0.15 | 91 | 1016.1 |
| 20260902030749 | 79 | 100 | 0.0 | 0.0 | 0.00 | 0.15 | 0.15 | 90 | 1016.1 |
| 20260902025746 | 79 | 100 | 0.0 | 0.0 | 0.00 | 0.15 | 0.15 | 90 | 1016.2 |
| 20260902024745 | 79 | 100 | 0.0 | 0.0 | 0.00 | 0.15 | 0.15 | 90 | 1016.3 |
| 20260902023745 | 80 | 100 | 0.0 | 0.0 | 0.00 | 0.15 | 0.15 | 90 | 1016.3 |
| 20260902022745 | 80 | 100 | 0.0 | 0.0 | 0.00 | 0.15 | 0.15 | 89 | 1016.4 |
| 20260902021744 | 80 | 100 | 0.0 | 2.6 | 0.00 | 0.15 | 0.15 | 89 | 1016.3 |
| 20260902021705 | 80 | 100 | 0.9 | 2.6 | 0.00 | 0.15 | 0.15 | 89 | 1016.2 |
| 20260902015747 | 80 | 100 | 0.0 | 1.7 | 0.00 | 0.15 | 0.15 | 90 | 1015.9 |
| 20260902014721 | 80 | 100 | 0.0 | 0.9 | 0.00 | 0.15 | 0.15 | 90 | 1016.0 |
| 20260902014118 | 80 | 100 | 0.0 | 1.7 | 0.00 | 0.15 | 0.15 | 89 | 1016.0 |
| 20260902013111 | 80 | 100 | 0.0 | 0.0 | 0.00 | 0.15 | 0.15 | 89 | 1016.1 |
| 20260902011634 | 81 | 100 | 0.0 | 0.0 | 0.00 | 0.15 | 0.15 | 89 | 1015.9 |
| 20260902010628 | 81 | 100 | 0.0 | 0.0 | 0.00 | 0.15 | 0.15 | 88 | 1015.9 |
| 20260902005627 | 81 | 100 | 0.0 | 0.0 | 0.00 | 0.15 | 0.15 | 87 | 1016.0 |
| 20260902004623 | 82 | 100 | 0.0 | 1.7 | 0.00 | 0.15 | 0.15 | 85 | 1015.9 |
| 20260902003602 | 82 | 100 | 0.0 | 2.6 | 0.00 | 0.15 | 0.15 | 85 | 1015.8 |
| 20260902002558 | 83 | 100 | 0.0 | 3.5 | 0.00 | 0.15 | 0.15 | 85 | 1015.8 |
| 20260902001547 | 83 | 98 | 0.9 | 3.5 | 0.00 | 0.15 | 0.15 | 84 | 1015.7 |
| 20260902000541 | 83 | 96 | 0.9 | 3.5 | 0.00 | 0.15 | 0.15 | 84 | 1015.6 |
| 20260901235540 | 83 | 96 | 0.9 | 3.5 | 0.00 | 0.15 | 0.15 | 84 | 1015.5 |
| 20260901235012 | 83 | 96 | 1.7 | 3.5 | 0.00 | 0.15 | 0.15 | 83 | 1015.5 |
| 20260901234012 | 83 | 96 | 2.6 | 4.3 | 0.00 | 0.15 | 0.15 | 82 | 1015.5 |
| 20260901232537 | 83 | 69 | 1.7 | 6.1 | 0.00 | 0.15 | 0.15 | 82 | 1015.4 |
| 20260901231537 | 84 | 95 | 1.7 | 5.2 | 0.00 | 0.15 | 0.15 | 82 | 1015.5 |
| 20260901230526 | 84 | 96 | 0.9 | 5.2 | 0.00 | 0.15 | 0.15 | 82 | 1015.3 |
| 20260901225524 | 84 | 97 | 0.9 | 3.5 | 0.00 | 0.15 | 0.15 | 81 | 1015.2 |
| 20260901224524 | 84 | 97 | 0.9 | 5.2 | 0.00 | 0.15 | 0.15 | 80 | 1015.4 |
| 20260901224010 | 84 | 90 | 1.7 | 3.5 | 0.00 | 0.15 | 0.15 | 79 | 1015.2 |
| 20260901222511 | 85 | 90 | 2.6 | 6.1 | 0.00 | 0.15 | 0.15 | 78 | 1015.2 |
| 20260901221510 | 85 | 79 | 1.7 | 6.1 | 0.00 | 0.15 | 0.15 | 77 | 1015.1 |
| 20260901220508 | 85 | 97 | 2.6 | 7.8 | 0.00 | 0.15 | 0.15 | 77 | 1015.0 |
| 20260901220002 | 86 | 113 | 2.6 | 6.1 | 0.00 | 0.15 | 0.15 | 77 | 1014.9 |
| 20260901214505 | 87 | 78 | 3.5 | 7.0 | 0.00 | 0.15 | 0.15 | 77 | 1014.9 |
| 20260901213505 | 87 | 71 | 3.5 | 8.7 | 0.00 | 0.15 | 0.15 | 76 | 1014.8 |
| 20260901213414 | 88 | 55 | 3.5 | 9.6 | 0.00 | 0.15 | 0.15 | 74 | 1014.6 |
| 20260901211458 | 89 | 45 | 3.5 | 9.6 | 0.00 | 0.15 | 0.15 | 75 | 1014.5 |
| 20260901210455 | 89 | 63 | 4.3 | 8.7 | 0.00 | 0.15 | 0.15 | 73 | 1014.7 |
| 20260901205454 | 89 | 43 | 4.3 | 8.7 | 0.00 | 0.15 | 0.15 | 73 | 1015.0 |
| 20260901204454 | 90 | 90 | 4.3 | 9.6 | 0.00 | 0.16 | 0.15 | 71 | 1014.8 |
| 20260901203445 | 90 | 15 | 5.2 | 11.3 | 0.00 | 0.17 | 0.15 | 72 | 1014.8 |
| 20260901202922 | 91 | 67 | 6.1 | 11.3 | 0.00 | 0.17 | 0.15 | 72 | 1015.0 |
| 20260901201434 | 91 | 5 | 7.0 | 14.8 | 0.01 | 0.18 | 0.15 | 73 | 1015.0 |
| 20260901200432 | 91 | 27 | 6.1 | 13.0 | 0.01 | 0.18 | 0.15 | 71 | 1015.0 |
| 20260901195426 | 90 | 25 | 5.2 | 9.6 | 0.01 | 0.19 | 0.15 | 74 | 1015.1 |
| 20260901194426 | 90 | 60 | 5.2 | 10.4 | 0.01 | 0.20 | 0.15 | 74 | 1015.2 |
| 20260901193420 | 90 | 44 | 5.2 | 12.2 | 0.01 | 0.21 | 0.15 | 73 | 1015.2 |